Time_in_sec,Mx,My,Mz
1326902664.96966672,0.33323839,-0.25410226,-0.45513466
1326902665.01752734,0.33303028,-0.25241697,-0.45865080
1326902665.06950474,0.33366403,-0.25312874,-0.45873663
1326902665.11749148,0.33417943,-0.25233546,-0.45621935
1326902665.16903782,0.33398670,-0.25196895,-0.45735505
1326902665.21732140,0.33387703,-0.25244111,-0.45710814
1326902665.26950073,0.33389166,-0.25444224,-0.45709339
1326902665.32161260,0.33389297,-0.25253889,-0.45910272
1326902665.36855555,0.33412060,-0.25385243,-0.45745951
1326902665.41755247,0.33389997,-0.25254023,-0.45897758
1326902665.46957350,0.33457834,-0.25361311,-0.45830995
1326902665.51752782,0.33556399,-0.25220743,-0.45864117
1326902665.56862330,0.33231044,-0.25253451,-0.45794001
1326902665.61754560,0.33387712,-0.25324118,-0.45947295
1326902665.67064071,0.33394888,-0.25348991,-0.45821980
1326902665.71772456,0.33356762,-0.25254545,-0.45812207
1326902665.76964355,0.33448255,-0.25502831,-0.45793095
1326902665.81752491,0.33495983,-0.25267681,-0.45817125
1326902665.86964989,0.33312991,-0.25361142,-0.45701528
1326902665.91752052,0.33510202,-0.25265822,-0.46015990
1326902665.96954751,0.33307660,-0.25301352,-0.45789561
1326902666.01754618,0.33582953,-0.25280005,-0.45849806
1326902666.06949449,0.33395687,-0.25266859,-0.45797557
1326902666.11659956,0.33394909,-0.25334960,-0.46046638
1326902666.16959310,0.33396804,-0.25419888,-0.45796430
1326902666.21750712,0.33256930,-0.25204509,-0.46005043
1326902666.26863980,0.33353692,-0.25312737,-0.45874345
1326902666.32151914,0.33424923,-0.25181007,-0.46170861
1326902666.36862564,0.33355179,-0.25324774,-0.45849228
1326902666.42052245,0.33373341,-0.25288400,-0.45973265
1326902666.46952200,0.33450562,-0.25418702,-0.45968217
1326902666.51787376,0.33517471,-0.25382474,-0.46127069
1326902666.56860542,0.33441448,-0.25336966,-0.45894420
1326902666.61749458,0.33473402,-0.25239876,-0.46217754
1326902666.66951632,0.33393151,-0.25381646,-0.46083835
1326902666.71751809,0.33396429,-0.25238928,-0.46234363
1326902666.76947236,0.33325034,-0.25427118,-0.46174502
1326902666.81763005,0.33548090,-0.25310922,-0.46250683
1326902666.86961031,0.33350101,-0.25474343,-0.46185303
1326902666.91768837,0.33382413,-0.25156257,-0.46248168
1326902666.97062159,0.33434454,-0.25415641,-0.46256045
1326902667.01752114,0.33385298,-0.25342605,-0.46446326
1326902667.06953168,0.33482969,-0.25192395,-0.46267477
1326902667.11751938,0.33451369,-0.25416574,-0.46180278
1326902667.16951609,0.33424014,-0.25439447,-0.46219012
1326902667.21747756,0.33368546,-0.25285208,-0.46285439
1326902667.27352571,0.33404624,-0.25499097,-0.46119830
1326902667.31754589,0.33467799,-0.25238812,-0.46317869
1326902667.36955070,0.33401093,-0.25190511,-0.46371686
1326902667.42071414,0.33371997,-0.25166032,-0.46435794
1326902667.47116446,0.33381742,-0.25464043,-0.46071398
1326902667.51751971,0.33381358,-0.25203076,-0.46272850
1326902667.56919098,0.33383632,-0.25227019,-0.46235135
1326902667.62054920,0.33459803,-0.25310102,-0.46242946
1326902667.67078161,0.33397278,-0.25276634,-0.45997018
1326902667.72156858,0.33408633,-0.25248441,-0.46470684
1326902667.76966286,0.33425978,-0.25308233,-0.46394482
1326902667.81767249,0.33507422,-0.25251257,-0.46290708
1326902667.86965346,0.33426774,-0.25400144,-0.46618363
1326902667.91752982,0.33514738,-0.25165799,-0.46602803
1326902667.96906805,0.33160141,-0.25458404,-0.46407688
1326902668.01753139,0.33330628,-0.25106233,-0.46488333
1326902668.06738019,0.33395222,-0.25248170,-0.46483880
1326902668.11831522,0.33590740,-0.25225341,-0.46610790
1326902668.16906166,0.33528903,-0.25286046,-0.46364167
1326902668.21751595,0.33523214,-0.25273207,-0.46464369
1326902668.26863313,0.33506784,-0.25450972,-0.46326774
1326902668.31751657,0.33450294,-0.25235483,-0.46630725
1326902668.36955309,0.33373234,-0.25222760,-0.46647421
1326902668.42053175,0.33493751,-0.25215673,-0.46304163
1326902668.46957040,0.33298415,-0.25342053,-0.46413562
1326902668.51721263,0.33425471,-0.25317609,-0.46631482
1326902668.56891537,0.33473754,-0.25366968,-0.46453890
1326902668.61755633,0.33542585,-0.25227588,-0.46338889
1326902668.66965151,0.33470073,-0.25262752,-0.46280155
1326902668.72097206,0.33466861,-0.25189331,-0.46555305
1326902668.76880884,0.33413413,-0.25519717,-0.46418634
1326902668.81677461,0.33483863,-0.25202039,-0.46479449
1326902668.87224722,0.33369195,-0.25165498,-0.46485853
1326902668.91748357,0.33415160,-0.25393024,-0.46144956
1326902668.96851206,0.33355036,-0.25367206,-0.46310544
1326902669.01754022,0.33504224,-0.25083798,-0.46554038
1326902669.06853342,0.33485660,-0.25369233,-0.46241146
1326902669.11755753,0.33374685,-0.25342870,-0.46409467
1326902669.16864967,0.33451587,-0.25238010,-0.46381122
1326902669.22153497,0.33448955,-0.25261021,-0.46431008
1326902669.26950502,0.33358869,-0.25508994,-0.46259448
1326902669.32065058,0.33278412,-0.25239298,-0.46078503
1326902669.36956477,0.33346128,-0.25200942,-0.46449414
1326902669.42850184,0.33465159,-0.25355861,-0.46379575
1326902669.47252131,0.33352971,-0.25084692,-0.46312624
1326902669.51755309,0.33530045,-0.25250995,-0.46339399
1326902669.56951785,0.33385071,-0.25441167,-0.46008998
1326902669.61981940,0.33380654,-0.25376987,-0.46533665
1326902669.66853595,0.33361080,-0.25333089,-0.46198174
1326902669.72069383,0.33403796,-0.25273311,-0.46333537
1326902669.76854849,0.33323461,-0.25403309,-0.46199703
1326902669.81750798,0.33400479,-0.25202152,-0.46384114
1326902669.86956573,0.33548975,-0.25240558,-0.46226174
1326902669.91754937,0.33311850,-0.25154245,-0.46376723
1326902669.96940351,0.33212823,-0.25344026,-0.46131194
1326902670.02055264,0.33561879,-0.25250205,-0.46449980
1326902670.06952190,0.33385450,-0.25380182,-0.46221492
1326902670.11757302,0.33478990,-0.25334981,-0.46129462
1326902670.16949868,0.33457705,-0.25309703,-0.46280488
1326902670.21756291,0.33362848,-0.25366411,-0.46397462
1326902670.26939869,0.33325660,-0.25321442,-0.46150252
1326902670.31754661,0.33461767,-0.25178888,-0.46418417
1326902670.36921692,0.33313227,-0.25342590,-0.46375337
1326902670.42156959,0.33384600,-0.25168428,-0.46210539
1326902670.47356987,0.33352214,-0.25380704,-0.46135941
1326902670.51753974,0.33563000,-0.25229192,-0.46200550
1326902670.56935859,0.33304200,-0.25272623,-0.46301454
1326902670.61756563,0.33348131,-0.25283608,-0.46423778
1326902670.66964579,0.33550376,-0.25240827,-0.46201146
1326902670.71754003,0.33445865,-0.25333244,-0.46268484
1326902670.76953650,0.33457854,-0.25347278,-0.46055654
1326902670.82114267,0.33385903,-0.25250962,-0.46197417
1326902670.86950397,0.33485842,-0.25298735,-0.46229154
1326902670.92159104,0.33398798,-0.25180602,-0.46184742
1326902670.96963692,0.33351675,-0.25498152,-0.46160102
1326902671.01749730,0.33480427,-0.25227177,-0.46317273
1326902671.06899810,0.33436665,-0.25239736,-0.46194774
1326902671.11753440,0.33455580,-0.25323337,-0.46093372
1326902671.16953850,0.33499783,-0.25275597,-0.46203616
1326902671.22163439,0.33576426,-0.25135422,-0.46175534
1326902671.26951122,0.33395994,-0.25596058,-0.45832673
1326902671.31752181,0.33359778,-0.25250557,-0.46211296
1326902671.36851716,0.33468306,-0.25229433,-0.46080866
1326902671.41751289,0.33458394,-0.25229830,-0.46031493
1326902671.46951056,0.33405477,-0.25362760,-0.45634180
1326902671.51752496,0.33459300,-0.25145435,-0.46231645
1326902671.56879902,0.33460999,-0.25394896,-0.46005252
1326902671.62150741,0.33371153,-0.25276229,-0.46010897
1326902671.66954184,0.33551118,-0.25280795,-0.45739225
1326902671.71758890,0.33437258,-0.25242129,-0.45957687
1326902671.76878238,0.33549005,-0.25374433,-0.45788589
1326902671.81750965,0.33433598,-0.25123882,-0.46008611
1326902671.86965275,0.33540538,-0.25347033,-0.46163505
1326902671.91753149,0.33382994,-0.25252691,-0.46022901
1326902671.96868944,0.33344138,-0.25266182,-0.45812801
1326902672.01667762,0.33466381,-0.25078532,-0.45869935
1326902672.07351995,0.33532435,-0.25420585,-0.45864010
1326902672.12167692,0.33456197,-0.25311697,-0.46080944
1326902672.16879320,0.33482075,-0.25182751,-0.46055505
1326902672.22068167,0.33567655,-0.25100771,-0.46101391
1326902672.26964307,0.33396533,-0.25478610,-0.45808512
1326902672.32170939,0.33418408,-0.25184330,-0.45834342
1326902672.36950397,0.33440056,-0.25416705,-0.46155933
1326902672.42154336,0.33494872,-0.25194657,-0.46054736
1326902672.47106385,0.33337358,-0.25408235,-0.45724845
1326902672.51757026,0.33460754,-0.25265545,-0.45993692
1326902672.56850243,0.33557442,-0.25267962,-0.45851257
1326902672.61758232,0.33417985,-0.25205481,-0.46071258
1326902672.66855907,0.33297262,-0.25297096,-0.46201849
1326902672.71756077,0.33474264,-0.25183547,-0.45968586
1326902672.76944304,0.33372337,-0.25455064,-0.45785022
1326902672.81752205,0.33537924,-0.25101960,-0.45953268
1326902672.86950207,0.33413309,-0.25347933,-0.45945758
1326902672.92178011,0.33498019,-0.25242275,-0.46004331
1326902672.96956921,0.33380160,-0.25360227,-0.45860118
1326902673.01753402,0.33590096,-0.25171006,-0.46162075
1326902673.06942272,0.33553055,-0.25337657,-0.45938337
1326902673.11754656,0.33409283,-0.25196633,-0.45772368
1326902673.16926956,0.33405703,-0.25264201,-0.46071506
1326902673.22142363,0.33455950,-0.25182346,-0.46069384
1326902673.26956320,0.33432570,-0.25478619,-0.45844007
1326902673.31764555,0.33551595,-0.25137544,-0.45939809
1326902673.36937952,0.33384138,-0.25217643,-0.45998132
1326902673.41757369,0.33487052,-0.25289491,-0.45979637
1326902673.46937299,0.33425212,-0.25350195,-0.45733014
1326902673.51755571,0.33501428,-0.25072071,-0.46031326
1326902673.56928921,0.33440697,-0.25299782,-0.45559016
1326902673.62064457,0.33448899,-0.25318006,-0.46094793
1326902673.67192388,0.33440793,-0.25391540,-0.45795360
1326902673.72062922,0.33612192,-0.25168905,-0.45875037
1326902673.76952887,0.33327362,-0.25396860,-0.45675558
1326902673.82157469,0.33590701,-0.25079361,-0.45913169
1326902673.86958766,0.33548480,-0.25223801,-0.45552626
1326902673.91761518,0.33474952,-0.25277719,-0.45967892
1326902673.97245049,0.33325726,-0.25347248,-0.45925507
1326902674.01758814,0.33510572,-0.25124830,-0.45992002
1326902674.06976771,0.33561274,-0.25409752,-0.45800158
1326902674.11758780,0.33392370,-0.25195697,-0.45848134
1326902674.16951752,0.33446535,-0.25267401,-0.45794827
1326902674.21753669,0.33547035,-0.25183696,-0.46027061
1326902674.26897454,0.33377400,-0.25573575,-0.45709071
1326902674.31750894,0.33459377,-0.25077200,-0.45995077
1326902674.36963558,0.33515546,-0.25231573,-0.45916134
1326902674.41754675,0.33520535,-0.25244278,-0.45828450
1326902674.46955490,0.33317795,-0.25444341,-0.45625836
1326902674.52044606,0.33408076,-0.25205877,-0.46021882
1326902674.56896305,0.33580506,-0.25232521,-0.45887694
1326902674.61750388,0.33356506,-0.25219232,-0.45812467
1326902674.66964078,0.33448741,-0.25265542,-0.45981860
1326902674.71750641,0.33427432,-0.25254297,-0.45908225
1326902674.76953840,0.33347464,-0.25417349,-0.45998707
1326902674.81686306,0.33511132,-0.25156182,-0.45868069
1326902674.86954308,0.33513489,-0.25191888,-0.45830274
1326902674.91763425,0.33442217,-0.25203770,-0.45746699
1326902674.96882391,0.33322665,-0.25260326,-0.45852500
1326902675.01756477,0.33634809,-0.25168645,-0.45923719
1326902675.06964636,0.33551249,-0.25333253,-0.45852211
1326902675.11756134,0.33577415,-0.25131595,-0.46039313
1326902675.16854906,0.33455381,-0.25248724,-0.45970199
1326902675.22156405,0.33516032,-0.25157112,-0.45780489
1326902675.27351737,0.33385682,-0.25284413,-0.45861426
1326902675.31753421,0.33524123,-0.25177595,-0.46091741
1326902675.36850810,0.33453012,-0.25307035,-0.46019810
1326902675.42055154,0.33505347,-0.25225595,-0.45980155
1326902675.46858430,0.33326963,-0.25352883,-0.46013775
1326902675.52150321,0.33544359,-0.25155658,-0.45953605
1326902675.56852031,0.33441973,-0.25248453,-0.45983392
1326902675.62159038,0.33481145,-0.25296071,-0.45968488
1326902675.66950750,0.33504057,-0.25223070,-0.46229705
1326902675.71765184,0.33444378,-0.25082096,-0.46146575
1326902675.76957130,0.33456326,-0.25378180,-0.45969245
1326902675.81750321,0.33504918,-0.25166753,-0.45980588
1326902675.86955309,0.33545232,-0.25179330,-0.45940918
1326902675.91757607,0.33613530,-0.25143373,-0.46074712
1326902675.96853948,0.33428475,-0.25236416,-0.45996672
1326902676.02156138,0.33575130,-0.25201675,-0.46088839
1326902676.06958818,0.33369413,-0.25257811,-0.46149367
1326902676.12264538,0.33430600,-0.25222787,-0.46183750
1326902676.17194653,0.33524454,-0.25318688,-0.46103212
1326902676.21757174,0.33499330,-0.25071672,-0.46068862
1326902676.26863790,0.33439675,-0.25412551,-0.46044737
1326902676.31751919,0.33555850,-0.25259054,-0.46214205
1326902676.36915565,0.33536327,-0.25266227,-0.46002111
1326902676.42053103,0.33599049,-0.25135159,-0.46224225
1326902676.46950960,0.33351159,-0.25427523,-0.46160623
1326902676.51766944,0.33552560,-0.25252998,-0.46163517
1326902676.56912971,0.33390903,-0.25169626,-0.46097910
1326902676.61751914,0.33609316,-0.25087813,-0.46261433
1326902676.66914773,0.33544874,-0.25400275,-0.46201333
1326902676.71756291,0.33519763,-0.25059241,-0.46155167
1326902676.76913643,0.33396217,-0.25178361,-0.45886546
1326902676.81752753,0.33488080,-0.25271603,-0.46068072
1326902676.87352395,0.33433831,-0.25282162,-0.46133271
1326902676.91740799,0.33542529,-0.25096548,-0.45979062
1326902676.96850324,0.33397862,-0.25481957,-0.46121332
1326902677.02064252,0.33549628,-0.25189635,-0.46090290
1326902677.06850243,0.33418751,-0.25340340,-0.46183565
1326902677.11754227,0.33463806,-0.25236291,-0.46044672
1326902677.16957450,0.33470008,-0.25319737,-0.45943972
1326902677.22089410,0.33354628,-0.25069243,-0.46163946
1326902677.26950955,0.33284611,-0.25365704,-0.45866278
1326902677.31750822,0.33532190,-0.25212106,-0.46178380
1326902677.36862254,0.33371598,-0.25269979,-0.46111745
1326902677.41751719,0.33574960,-0.25178140,-0.46089011
1326902677.46863031,0.33535641,-0.25414833,-0.45914847
1326902677.51765132,0.33443138,-0.25199383,-0.46183243
1326902677.56853294,0.33448738,-0.25200450,-0.46083149
1326902677.61755633,0.33536708,-0.25274009,-0.45878351
1326902677.66950035,0.33411911,-0.25282556,-0.46072078
1326902677.71754193,0.33481193,-0.25094008,-0.46169463
1326902677.76886773,0.33577010,-0.25380599,-0.45850500
1326902677.81751704,0.33481869,-0.25108168,-0.45932338
1326902677.86862087,0.33508232,-0.25237897,-0.45930022
1326902677.91754818,0.33605450,-0.25202879,-0.45999894
1326902677.96869540,0.33408645,-0.25331226,-0.45909762
1326902678.01763678,0.33468741,-0.25129178,-0.46169886
1326902678.06952119,0.33460107,-0.25400123,-0.46131042
1326902678.12004495,0.33526736,-0.25074601,-0.45805436
1326902678.16860604,0.33396402,-0.25281888,-0.46122807
1326902678.22149706,0.33455688,-0.25081965,-0.46170914
1326902678.26859713,0.33398440,-0.25578368,-0.45896113
1326902678.32151628,0.33392313,-0.25104824,-0.46174154
1326902678.36860156,0.33500618,-0.25248203,-0.46067563
1326902678.42164254,0.33636835,-0.25237262,-0.46122703
1326902678.47205210,0.33333200,-0.25328282,-0.46125871
1326902678.52057099,0.33518523,-0.25176531,-0.46191832
1326902678.56859565,0.33426082,-0.25482762,-0.46069923
1326902678.61755109,0.33469257,-0.25199789,-0.46169367
1326902678.66853166,0.33436826,-0.25292203,-0.46307665
1326902678.71761203,0.33594704,-0.25071561,-0.46176007
1326902678.76954198,0.33297330,-0.25445828,-0.46102026
1326902678.82144761,0.33485317,-0.25163025,-0.46330914
1326902678.86988974,0.33434689,-0.25399849,-0.46132404
1326902678.92082071,0.33415803,-0.25128233,-0.46210149
1326902678.96956992,0.33271384,-0.25468960,-0.46115729
1326902679.02848577,0.33580950,-0.25024217,-0.46189550
1326902679.07262278,0.33554488,-0.24976736,-0.46203771
1326902679.11756349,0.33419561,-0.25338212,-0.46395582
1326902679.16934228,0.33498076,-0.25456980,-0.46365598
1326902679.22063518,0.33564436,-0.25190172,-0.46052071
1326902679.26951838,0.33285937,-0.25434190,-0.46077773
1326902679.32063484,0.33434567,-0.25174251,-0.46333554
1326902679.36864662,0.33594164,-0.25188982,-0.46200165
1326902679.41751719,0.33493790,-0.25270408,-0.46192506
1326902679.46856213,0.33388397,-0.25447181,-0.46059716
1326902679.51754928,0.33596092,-0.25165844,-0.46162805
1326902679.56921029,0.33538821,-0.25354394,-0.46077248
1326902679.62155390,0.33505899,-0.25188163,-0.46192428
1326902679.66950107,0.33525953,-0.25236705,-0.46066284
1326902679.71723700,0.33472240,-0.25129843,-0.46107328
1326902679.76905274,0.33215475,-0.25269943,-0.45957962
1326902679.82152510,0.33549541,-0.25177866,-0.46090376
1326902679.86957121,0.33548582,-0.25316432,-0.46351397
1326902679.91755533,0.33499956,-0.25140023,-0.46292868
1326902679.96899056,0.33408400,-0.25375909,-0.46146455
1326902680.02055264,0.33690852,-0.25177369,-0.46282375
1326902680.07063293,0.33412293,-0.25221586,-0.46284527
1326902680.12104917,0.33515450,-0.25234708,-0.46253958
1326902680.16962695,0.33457211,-0.25307834,-0.45944741
1326902680.21754026,0.33541411,-0.25117558,-0.46228439
1326902680.26901746,0.33256760,-0.25397947,-0.46141955
1326902680.31755900,0.33610752,-0.25128812,-0.46349373
1326902680.36853004,0.33389121,-0.25259280,-0.46023569
1326902680.42172718,0.33493298,-0.25185767,-0.46417639
1326902680.46950698,0.33447805,-0.25472859,-0.45906675
1326902680.51757336,0.33407232,-0.25103098,-0.46360463
1326902680.56965089,0.33490106,-0.25340223,-0.46267053
1326902680.61750865,0.33578911,-0.25223619,-0.46250635
1326902680.66862869,0.33498260,-0.25212497,-0.46105358
1326902680.71750665,0.33429223,-0.25208491,-0.46433386
1326902680.76955032,0.33407527,-0.25352237,-0.46159139
1326902680.81675839,0.33544543,-0.25259185,-0.46189862
1326902680.86973929,0.33512872,-0.25377527,-0.46090949
1326902680.92148423,0.33459628,-0.25221464,-0.46344355
1326902680.96964812,0.33470103,-0.25411496,-0.46180317
1326902681.02552295,0.33470410,-0.25244740,-0.46381035
1326902681.06866288,0.33449632,-0.25210091,-0.46295077
1326902681.12150550,0.33448762,-0.25186422,-0.46307763
1326902681.16865325,0.33489579,-0.25363627,-0.46279392
1326902681.22065544,0.33530998,-0.25127330,-0.46416026
1326902681.26950908,0.33332756,-0.25363457,-0.46138123
1326902681.31756091,0.33411235,-0.25268394,-0.46309203
1326902681.37179661,0.33391219,-0.25259680,-0.45986032
1326902681.42154956,0.33461913,-0.25151384,-0.46294829
1326902681.46947145,0.33374923,-0.25421113,-0.46297610
1326902681.51753831,0.33368477,-0.25034338,-0.46138501
1326902681.56946993,0.33421317,-0.25291535,-0.46358395
1326902681.62164283,0.33499244,-0.25233907,-0.46317199
1326902681.67351174,0.33443728,-0.25375783,-0.46194455
1326902681.71756220,0.33524773,-0.25057915,-0.46292111
1326902681.76932764,0.33414906,-0.25292596,-0.46246472
1326902681.82151127,0.33406225,-0.25269723,-0.46172258
1326902681.86852026,0.33370578,-0.25208744,-0.46349218
1326902681.91747499,0.33553579,-0.25235116,-0.46251911
1326902681.96947813,0.33358249,-0.25469515,-0.46148491
1326902682.02060819,0.33456498,-0.25079840,-0.46382931
1326902682.07118821,0.33434173,-0.25329238,-0.46132925
1326902682.12414670,0.33517799,-0.25190425,-0.45979732
1326902682.16863108,0.33476415,-0.25318676,-0.46055895
1326902682.21751523,0.33501539,-0.25243816,-0.46504104
1326902682.26864266,0.33355266,-0.25539461,-0.46210527
1326902682.31762600,0.33481732,-0.25150591,-0.46393558
1326902682.36955285,0.33509299,-0.25271076,-0.46141776
1326902682.41861463,0.33375219,-0.25174367,-0.46261895
1326902682.46949720,0.33400086,-0.25386080,-0.46296507
1326902682.52163148,0.33491370,-0.25208905,-0.46454999
1326902682.56864285,0.33476967,-0.25281242,-0.46268171
1326902682.61754608,0.33346719,-0.25326291,-0.46337202
1326902682.66917872,0.33472854,-0.25292212,-0.46343154
1326902682.71749830,0.33507580,-0.25209707,-0.46391758
1326902682.77751422,0.33316094,-0.25491846,-0.46225432
1326902682.82154107,0.33414060,-0.25080892,-0.46235520
1326902682.87374616,0.33416381,-0.25398651,-0.46233180
